CEB915 RPMD-RPVB

Flight info

Callsign CEB915
Flight time 0h 50m
Altitude 30000
Route ANKIN3P ANKIN DCT NANAS NANAS3P
Aircraft A21N/M-SDE2E3FGHIRWXY/LB1

Departure

Time 2026-04-16 08:24
Airport Francisco Bangoy International Airport (RPMD)

Arrival

Time 2026-04-16 09:14
Airport Bacolod-Silay International Airport (RPVB)
Time Latitude Longitude Altitude Speed Heading
2026-04-16 08:08 7.13036 125.64646 98 ft 0 kts 320°
2026-04-16 08:15 7.13027 125.64654 93 ft 2 kts 323°
2026-04-16 08:16 7.13016 125.64662 92 ft 0 kts 315°
2026-04-16 08:16 7.13015 125.64663 92 ft 1 kts 315°
2026-04-16 08:16 7.13009 125.64669 100 ft 1 kts 320°
2026-04-16 08:16 7.13004 125.64674 97 ft 1 kts 319°
2026-04-16 08:17 7.12998 125.64679 97 ft 1 kts 318°
2026-04-16 08:17 7.12992 125.64684 98 ft 1 kts 317°
2026-04-16 08:17 7.12987 125.64690 97 ft 1 kts 328°
2026-04-16 08:17 7.12975 125.64697 98 ft 2 kts 346°
2026-04-16 08:18 7.12960 125.64699 98 ft 2 kts 39°
2026-04-16 08:19 7.12958 125.64710 97 ft 7 kts 62°
2026-04-16 08:20 7.12999 125.64742 96 ft 10 kts 48°
2026-04-16 08:20 7.12999 125.64813 99 ft 12 kts 134°
2026-04-16 08:20 7.12932 125.64872 99 ft 14 kts 140°
2026-04-16 08:20 7.12884 125.64950 99 ft 12 kts 86°
2026-04-16 08:21 7.12926 125.65008 99 ft 12 kts 49°
2026-04-16 08:21 7.13004 125.65098 100 ft 21 kts 49°
2026-04-16 08:21 7.13108 125.65219 100 ft 25 kts 49°
2026-04-16 08:21 7.13229 125.65359 98 ft 27 kts 49°
2026-04-16 08:22 7.13366 125.65497 100 ft 28 kts 18°
2026-04-16 08:22 7.13408 125.65498 100 ft 4 kts
2026-04-16 08:22 7.13436 125.65544 98 ft 11 kts 99°
2026-04-16 08:22 7.13397 125.65553 101 ft 6 kts 210°
2026-04-16 08:23 7.13377 125.65531 97 ft 0 kts 229°
2026-04-16 08:23 7.13201 125.65327 101 ft 81 kts 229°
2026-04-16 08:24 7.12671 125.64712 98 ft 149 kts 229°
2026-04-16 08:24 7.11902 125.63803 372 ft 184 kts 228°
2026-04-16 08:24 7.11087 125.62809 1331 ft 183 kts 229°
2026-04-16 08:24 7.10449 125.61716 2388 ft 186 kts 254°
2026-04-16 08:25 7.10509 125.60369 2861 ft 206 kts 293°
2026-04-16 08:25 7.11386 125.59161 3293 ft 225 kts 318°
2026-04-16 08:25 7.12654 125.58138 3721 ft 243 kts 325°
2026-04-16 08:25 7.14070 125.57081 4228 ft 260 kts 324°
2026-04-16 08:26 7.15496 125.55945 5028 ft 263 kts 322°
2026-04-16 08:26 7.16891 125.54764 5869 ft 263 kts 321°
2026-04-16 08:26 7.18298 125.53533 6513 ft 272 kts 320°
2026-04-16 08:26 7.19727 125.52262 7333 ft 275 kts 320°
2026-04-16 08:27 7.21160 125.50983 8223 ft 276 kts 319°
2026-04-16 08:27 7.22606 125.49691 9068 ft 280 kts 319°
2026-04-16 08:27 7.24050 125.48401 10099 ft 271 kts 318°
2026-04-16 08:27 7.25431 125.47166 11123 ft 265 kts 319°
2026-04-16 08:28 7.26831 125.45913 11762 ft 273 kts 319°
2026-04-16 08:28 7.28263 125.44631 12425 ft 278 kts 319°
2026-04-16 08:28 7.29723 125.43326 13125 ft 283 kts 319°
2026-04-16 08:28 7.31209 125.41998 13755 ft 289 kts 319°
2026-04-16 08:29 7.32720 125.40649 14369 ft 292 kts 319°
2026-04-16 08:29 7.34263 125.39312 14947 ft 296 kts 323°
2026-04-16 08:29 7.35974 125.38132 15529 ft 301 kts 327°
2026-04-16 08:29 7.37734 125.36967 16130 ft 304 kts 327°
2026-04-16 08:30 7.39515 125.35780 16709 ft 309 kts 327°
2026-04-16 08:30 7.41316 125.34576 17291 ft 313 kts 327°
2026-04-16 08:30 7.43142 125.33355 17851 ft 317 kts 327°
2026-04-16 08:30 7.44991 125.32118 18363 ft 321 kts 327°
2026-04-16 08:31 7.46862 125.30867 18865 ft 324 kts 327°
2026-04-16 08:31 7.48747 125.29606 19365 ft 327 kts 326°
2026-04-16 08:31 7.50651 125.28332 19833 ft 330 kts 326°
2026-04-16 08:31 7.52573 125.27046 20313 ft 333 kts 326°
2026-04-16 08:32 7.54512 125.25749 20776 ft 337 kts 326°
2026-04-16 08:32 7.56472 125.24437 21234 ft 340 kts 326°
2026-04-16 08:32 7.58449 125.23114 21709 ft 343 kts 326°
2026-04-16 08:32 7.60445 125.21779 22143 ft 346 kts 326°
2026-04-16 08:33 7.62459 125.20430 22595 ft 349 kts 326°
2026-04-16 08:33 7.64461 125.19089 23016 ft 352 kts 326°
2026-04-16 08:33 7.66513 125.17715 23431 ft 356 kts 326°
2026-04-16 08:33 7.68583 125.16330 23807 ft 358 kts 326°
2026-04-16 08:34 7.70665 125.14935 24171 ft 361 kts 326°
2026-04-16 08:34 7.72762 125.13531 24536 ft 363 kts 326°
2026-04-16 08:34 7.74868 125.12120 24886 ft 365 kts 326°
2026-04-16 08:34 7.76994 125.10696 25226 ft 368 kts 326°
2026-04-16 08:35 7.79130 125.09264 25589 ft 370 kts 326°
2026-04-16 08:35 7.81278 125.07824 25935 ft 372 kts 326°
2026-04-16 08:35 7.83442 125.06373 26239 ft 375 kts 326°
2026-04-16 08:35 7.85618 125.04914 26595 ft 376 kts 326°
2026-04-16 08:36 7.87804 125.03448 26920 ft 379 kts 326°
2026-04-16 08:36 7.90007 125.01970 27216 ft 382 kts 326°
2026-04-16 08:36 7.92223 125.00484 27548 ft 383 kts 326°
2026-04-16 08:36 7.94449 124.98992 27873 ft 385 kts 325°
2026-04-16 08:37 7.96605 124.97379 28183 ft 387 kts 319°
2026-04-16 08:37 7.98581 124.95524 28460 ft 389 kts 313°
2026-04-16 08:37 8.00420 124.93512 28765 ft 391 kts 312°
2026-04-16 08:37 8.02269 124.91497 29070 ft 393 kts 312°
2026-04-16 08:38 8.04138 124.89472 29319 ft 396 kts 312°
2026-04-16 08:38 8.06018 124.87438 29621 ft 397 kts 312°
2026-04-16 08:38 8.07907 124.85393 29911 ft 400 kts 312°
2026-04-16 08:38 8.09827 124.83313 29910 ft 410 kts 312°
2026-04-16 08:39 8.13800 124.79003 29908 ft 429 kts 312°
2026-04-16 08:39 8.17945 124.74506 29912 ft 446 kts 312°
2026-04-16 08:40 8.22242 124.69844 29911 ft 461 kts 312°
2026-04-16 08:40 8.26638 124.65075 29906 ft 464 kts 312°
2026-04-16 08:41 8.31031 124.60306 29894 ft 464 kts 312°
2026-04-16 08:41 8.35393 124.55569 29887 ft 464 kts 312°
2026-04-16 08:42 8.39785 124.50796 29879 ft 464 kts 312°
2026-04-16 08:42 8.44176 124.46022 29877 ft 464 kts 312°
2026-04-16 08:43 8.48572 124.41243 29868 ft 464 kts 312°
2026-04-16 08:43 8.52963 124.36465 29867 ft 464 kts 312°
2026-04-16 08:44 8.57357 124.31683 29867 ft 465 kts 312°
2026-04-16 08:44 8.61756 124.26896 29862 ft 465 kts 312°
2026-04-16 08:45 8.66155 124.22105 29867 ft 465 kts 312°
2026-04-16 08:45 8.70556 124.17310 29862 ft 465 kts 312°
2026-04-16 08:46 8.74957 124.12513 29860 ft 466 kts 312°
2026-04-16 08:46 8.79359 124.07715 29857 ft 465 kts 312°
2026-04-16 08:47 8.83759 124.02916 29853 ft 466 kts 312°
2026-04-16 08:47 8.88165 123.98110 29859 ft 466 kts 312°
2026-04-16 08:48 8.91823 123.94117 29857 ft 466 kts 312°
2026-04-16 08:48 8.96971 123.88490 29862 ft 466 kts 312°
2026-04-16 08:49 9.00629 123.84495 29856 ft 466 kts 312°
2026-04-16 08:49 9.05747 123.78904 29860 ft 466 kts 312°
2026-04-16 08:50 9.09436 123.74874 29864 ft 466 kts 311°
2026-04-16 08:50 9.13834 123.70063 29857 ft 466 kts 312°
2026-04-16 08:51 9.18234 123.65250 29861 ft 466 kts 311°
2026-04-16 08:51 9.22629 123.60438 29855 ft 466 kts 312°
2026-04-16 08:52 9.27025 123.55627 29837 ft 465 kts 312°
2026-04-16 08:52 9.29221 123.53222 29473 ft 464 kts 312°
2026-04-16 08:52 9.31415 123.50817 28662 ft 467 kts 312°
2026-04-16 08:53 9.33591 123.48431 27787 ft 465 kts 312°
2026-04-16 08:53 9.35759 123.46053 27250 ft 455 kts 312°
2026-04-16 08:53 9.37878 123.43730 26905 ft 443 kts 312°
2026-04-16 08:53 9.39955 123.41452 26360 ft 438 kts 312°
2026-04-16 08:54 9.42006 123.39203 25824 ft 432 kts 312°
2026-04-16 08:54 9.44031 123.36981 25294 ft 427 kts 312°
2026-04-16 08:54 9.46031 123.34786 24774 ft 422 kts 312°
2026-04-16 08:54 9.48012 123.32612 24248 ft 418 kts 312°
2026-04-16 08:55 9.49973 123.30460 23734 ft 414 kts 312°
2026-04-16 08:55 9.51916 123.28327 23171 ft 410 kts 313°
2026-04-16 08:55 9.53836 123.26218 22650 ft 404 kts 313°
2026-04-16 08:55 9.55726 123.24140 22143 ft 398 kts 313°
2026-04-16 08:56 9.57591 123.22091 21641 ft 393 kts 313°
2026-04-16 08:56 9.59429 123.20070 21144 ft 388 kts 313°
2026-04-16 08:56 9.61247 123.18076 20654 ft 383 kts 313°
2026-04-16 08:56 9.63041 123.16105 20163 ft 379 kts 313°
2026-04-16 08:57 9.64816 123.14152 19685 ft 375 kts 314°
2026-04-16 08:57 9.66575 123.12219 19199 ft 371 kts 314°
2026-04-16 08:57 9.68315 123.10305 18726 ft 368 kts 314°
2026-04-16 08:57 9.70044 123.08404 18250 ft 365 kts 314°
2026-04-16 08:58 9.71758 123.06519 17747 ft 362 kts 314°
2026-04-16 08:58 9.73426 123.04685 17507 ft 345 kts 314°
2026-04-16 08:58 9.75011 123.02941 17284 ft 330 kts 314°
2026-04-16 08:58 9.76542 123.01258 17042 ft 330 kts 314°
2026-04-16 08:59 9.78163 122.99611 16788 ft 329 kts 324°
2026-04-16 08:59 9.80138 122.98499 16554 ft 324 kts 341°
2026-04-16 08:59 9.82295 122.97864 16312 ft 322 kts 349°
2026-04-16 08:59 9.84493 122.97438 16069 ft 321 kts 352°
2026-04-16 09:00 9.86693 122.97077 15827 ft 320 kts 352°
2026-04-16 09:00 9.88884 122.96722 15582 ft 319 kts 352°
2026-04-16 09:00 9.91068 122.96357 15353 ft 318 kts 352°
2026-04-16 09:00 9.93246 122.95980 15119 ft 317 kts 351°
2026-04-16 09:01 9.97604 122.95206 14388 ft 317 kts 351°
2026-04-16 09:01 9.99767 122.94819 13999 ft 314 kts 351°
2026-04-16 09:01 10.01913 122.94434 13613 ft 311 kts 351°
2026-04-16 09:02 10.04033 122.94054 13208 ft 307 kts 351°
2026-04-16 09:02 10.06122 122.93680 12837 ft 303 kts 351°
2026-04-16 09:02 10.08187 122.93312 12466 ft 299 kts 351°
2026-04-16 09:02 10.10226 122.92948 12103 ft 296 kts 351°
2026-04-16 09:03 10.12244 122.92587 11737 ft 293 kts 351°
2026-04-16 09:03 10.14240 122.92231 11376 ft 290 kts 351°
2026-04-16 09:03 10.16218 122.91878 11010 ft 287 kts 352°
2026-04-16 09:03 10.18183 122.91527 10639 ft 286 kts 352°
2026-04-16 09:04 10.20164 122.91174 10351 ft 301 kts 352°
2026-04-16 09:04 10.22292 122.90797 10051 ft 316 kts 351°
2026-04-16 09:04 10.24434 122.90413 10001 ft 308 kts 351°
2026-04-16 09:04 10.26504 122.90041 9688 ft 299 kts 351°
2026-04-16 09:05 10.28560 122.89673 9070 ft 299 kts 352°
2026-04-16 09:05 10.30602 122.89310 8490 ft 296 kts 351°
2026-04-16 09:05 10.32628 122.88948 7879 ft 295 kts 351°
2026-04-16 09:05 10.34617 122.88593 7584 ft 284 kts 351°
2026-04-16 09:06 10.36550 122.88247 7260 ft 281 kts 351°
2026-04-16 09:06 10.38457 122.87907 6881 ft 275 kts 351°
2026-04-16 09:06 10.40314 122.87577 6539 ft 268 kts 350°
2026-04-16 09:06 10.42150 122.87250 6184 ft 267 kts 350°
2026-04-16 09:07 10.43974 122.86925 5822 ft 265 kts 350°
2026-04-16 09:07 10.45759 122.86605 5465 ft 263 kts 350°
2026-04-16 09:07 10.47552 122.86284 5126 ft 261 kts 350°
2026-04-16 09:07 10.49369 122.86049 4771 ft 259 kts
2026-04-16 09:08 10.51085 122.86440 4436 ft 257 kts 25°
2026-04-16 09:08 10.52637 122.87329 4087 ft 256 kts 30°
2026-04-16 09:08 10.54171 122.88236 3750 ft 254 kts 30°
2026-04-16 09:08 10.55693 122.89126 3504 ft 249 kts 29°
2026-04-16 09:09 10.57191 122.89941 3340 ft 241 kts 27°
2026-04-16 09:09 10.58663 122.90751 3078 ft 240 kts 28°
2026-04-16 09:09 10.60081 122.91573 2981 ft 228 kts 30°
2026-04-16 09:09 10.61411 122.92352 2953 ft 211 kts 30°
2026-04-16 09:10 10.62628 122.93066 2844 ft 194 kts 30°
2026-04-16 09:10 10.63742 122.93721 2737 ft 176 kts 30°
2026-04-16 09:10 10.64732 122.94304 2622 ft 153 kts 30°
2026-04-16 09:10 10.65622 122.94826 2416 ft 144 kts 30°
2026-04-16 09:11 10.66479 122.95331 2134 ft 140 kts 30°
2026-04-16 09:11 10.67319 122.95822 1829 ft 136 kts 30°
2026-04-16 09:11 10.68134 122.96302 1498 ft 136 kts 30°
2026-04-16 09:11 10.68956 122.96786 1266 ft 137 kts 30°
2026-04-16 09:12 10.69773 122.97277 1240 ft 133 kts 33°
2026-04-16 09:12 10.70575 122.97775 1223 ft 138 kts 30°
2026-04-16 09:12 10.71397 122.98269 1262 ft 138 kts 30°
2026-04-16 09:12 10.72242 122.98742 1240 ft 144 kts 29°
2026-04-16 09:13 10.73136 122.99227 976 ft 142 kts 28°
2026-04-16 09:13 10.73963 122.99722 770 ft 139 kts 30°
2026-04-16 09:13 10.74800 123.00215 609 ft 138 kts 31°
2026-04-16 09:13 10.75617 123.00708 394 ft 137 kts 30°
2026-04-16 09:14 10.76465 123.01209 232 ft 140 kts 31°
2026-04-16 09:14 10.77280 123.01692 85 ft 129 kts 31°
2026-04-16 09:14 10.77854 123.02026 89 ft 76 kts 29°
2026-04-16 09:14 10.78243 123.02251 86 ft 36 kts 29°
2026-04-16 09:15 10.78413 123.02322 87 ft 12 kts 29°
2026-04-16 09:15 10.78414 123.02334 84 ft 4 kts 84°
2026-04-16 09:15 10.78406 123.02346 86 ft 1 kts 133°